Time,TemperatureF,DewpointF,PressureIn,WindDirection,WindDirectionDegrees,WindSpeedMPH,WindSpeedGustMPH,Humidity,HourlyPrecipIn,Conditions,Clouds,dailyrainin,SoftwareType,DateUTC
2013-08-30 00:04:00,70.0,68.2,29.79,NE,45,0.0,-999.0,94,-99.99,,,0.00,Acu-Link.com,2013-08-30 04:04:00,
2013-08-30 00:19:00,69.4,67.9,29.79,NNE,22,0.0,-999.0,95,-99.99,,,0.00,Acu-Link.com,2013-08-30 04:19:00,
2013-08-30 00:35:00,69.3,68.1,29.78,NNE,22,0.0,-999.0,96,-99.99,,,0.00,Acu-Link.com,2013-08-30 04:35:00,
2013-08-30 00:50:00,69.1,67.9,29.78,WSW,247,0.0,-999.0,96,-99.99,,,0.00,Acu-Link.com,2013-08-30 04:50:00,
2013-08-30 01:05:00,68.9,67.7,29.78,WSW,247,0.0,-999.0,96,-99.99,,,0.00,Acu-Link.com,2013-08-30 05:05:00,
2013-08-30 01:21:00,68.5,67.3,29.78,WSW,247,0.0,-999.0,96,-99.99,,,0.00,Acu-Link.com,2013-08-30 05:21:00,
2013-08-30 01:36:00,68.4,67.5,29.78,WSW,247,0.0,-999.0,97,-99.99,,,0.00,Acu-Link.com,2013-08-30 05:36:00,
2013-08-30 01:51:00,68.2,67.6,29.77,WSW,247,0.0,-999.0,98,-99.99,,,0.00,Acu-Link.com,2013-08-30 05:51:00,
2013-08-30 02:06:00,68.0,67.4,29.77,WSW,247,0.0,-999.0,98,-99.99,,,0.00,Acu-Link.com,2013-08-30 06:06:00,
2013-08-30 02:22:00,68.0,67.7,29.76,WSW,247,0.0,-999.0,99,-99.99,,,0.00,Acu-Link.com,2013-08-30 06:22:00,
2013-08-30 02:37:00,67.8,67.5,29.77,West,270,0.0,-999.0,99,-99.99,,,0.00,Acu-Link.com,2013-08-30 06:37:00,
2013-08-30 02:52:00,67.8,67.5,29.77,West,270,0.0,-999.0,99,-99.99,,,0.00,Acu-Link.com,2013-08-30 06:52:00,
2013-08-30 03:07:00,67.6,67.3,29.77,ENE,67,0.0,-999.0,99,-99.99,,,0.00,Acu-Link.com,2013-08-30 07:07:00,
2013-08-30 03:23:00,67.5,67.2,29.76,ENE,67,0.0,-999.0,99,-99.99,,,0.00,Acu-Link.com,2013-08-30 07:23:00,
2013-08-30 03:38:00,67.1,66.8,29.76,ENE,67,0.0,-999.0,99,-99.99,,,0.00,Acu-Link.com,2013-08-30 07:38:00,
2013-08-30 03:53:00,66.9,66.6,29.76,ENE,67,0.0,-999.0,99,-99.99,,,0.00,Acu-Link.com,2013-08-30 07:53:00,
2013-08-30 04:09:00,66.7,66.4,29.76,West,270,0.0,-999.0,99,-99.99,,,0.00,Acu-Link.com,2013-08-30 08:09:00,
2013-08-30 04:25:00,66.7,66.4,29.77,West,270,0.0,-999.0,99,-99.99,,,0.00,Acu-Link.com,2013-08-30 08:25:00,
2013-08-30 04:40:00,66.9,66.6,29.76,WSW,247,0.0,-999.0,99,-99.99,,,0.00,Acu-Link.com,2013-08-30 08:40:00,
2013-08-30 04:55:00,66.9,66.6,29.76,West,270,0.0,-999.0,99,-99.99,,,0.00,Acu-Link.com,2013-08-30 08:55:00,
2013-08-30 05:10:00,67.1,66.8,29.76,West,270,0.0,-999.0,99,-99.99,,,0.00,Acu-Link.com,2013-08-30 09:10:00,
2013-08-30 05:25:00,66.9,66.6,29.77,West,270,0.0,-999.0,99,-99.99,,,0.00,Acu-Link.com,2013-08-30 09:25:00,
2013-08-30 05:40:00,67.1,66.8,29.76,East,90,0.0,-999.0,99,-99.99,,,0.00,Acu-Link.com,2013-08-30 09:40:00,
2013-08-30 05:56:00,66.7,66.4,29.76,East,90,0.0,-999.0,99,-99.99,,,0.00,Acu-Link.com,2013-08-30 09:56:00,
2013-08-30 06:11:00,66.4,66.1,29.76,East,90,0.0,-999.0,99,-99.99,,,0.00,Acu-Link.com,2013-08-30 10:11:00,
2013-08-30 06:26:00,66.6,66.3,29.76,SSE,157,0.0,-999.0,99,-99.99,,,0.00,Acu-Link.com,2013-08-30 10:26:00,
2013-08-30 06:42:00,66.2,65.9,29.76,ESE,112,0.0,-999.0,99,-99.99,,,0.00,Acu-Link.com,2013-08-30 10:42:00,
2013-08-30 06:57:00,66.0,65.7,29.76,SE,135,0.0,-999.0,99,-99.99,,,0.00,Acu-Link.com,2013-08-30 10:57:00,
2013-08-30 07:12:00,65.8,65.5,29.77,SSW,202,0.0,-999.0,99,-99.99,,,0.00,Acu-Link.com,2013-08-30 11:12:00,
2013-08-30 07:27:00,65.8,65.5,29.77,ESE,112,0.0,-999.0,99,-99.99,,,0.00,Acu-Link.com,2013-08-30 11:27:00,
2013-08-30 07:43:00,66.2,65.9,29.77,East,90,0.0,-999.0,99,-99.99,,,0.00,Acu-Link.com,2013-08-30 11:43:00,
2013-08-30 07:58:00,66.7,66.4,29.77,ESE,112,0.0,-999.0,99,-99.99,,,0.00,Acu-Link.com,2013-08-30 11:58:00,
2013-08-30 08:13:00,67.5,67.2,29.77,ENE,67,0.0,-999.0,99,-99.99,,,0.00,Acu-Link.com,2013-08-30 12:13:00,
2013-08-30 08:29:00,69.1,68.8,29.78,ENE,67,1.7,-999.0,99,-99.99,,,0.00,Acu-Link.com,2013-08-30 12:29:00,
2013-08-30 08:44:00,69.6,69.0,29.77,ENE,67,0.0,-999.0,98,-99.99,,,0.00,Acu-Link.com,2013-08-30 12:44:00,
2013-08-30 08:59:00,71.2,70.3,29.78,SSE,157,0.0,-999.0,97,-99.99,,,0.00,Acu-Link.com,2013-08-30 12:59:00,
2013-08-30 09:14:00,72.5,71.3,29.78,SSW,202,0.0,-999.0,96,-99.99,,,0.00,Acu-Link.com,2013-08-30 13:14:00,
2013-08-30 09:30:00,73.9,72.1,29.78,SSE,157,2.7,-999.0,94,-99.99,,,0.00,Acu-Link.com,2013-08-30 13:30:00,
2013-08-30 09:45:00,75.6,73.4,29.78,South,180,2.2,-999.0,93,-99.99,,,0.00,Acu-Link.com,2013-08-30 13:45:00,
2013-08-30 10:01:00,76.3,73.5,29.78,East,90,3.7,-999.0,91,-99.99,,,0.00,Acu-Link.com,2013-08-30 14:01:00,
2013-08-30 10:16:00,77.7,73.9,29.78,SE,135,1.7,-999.0,88,-99.99,,,0.00,Acu-Link.com,2013-08-30 14:16:00,
2013-08-30 10:31:00,78.1,73.6,29.78,West,270,2.2,-999.0,86,-99.99,,,0.00,Acu-Link.com,2013-08-30 14:31:00,
2013-08-30 10:47:00,79.5,73.5,29.78,ENE,67,1.7,-999.0,82,-99.99,,,0.00,Acu-Link.com,2013-08-30 14:47:00,
2013-08-30 11:02:00,80.2,73.5,29.77,WSW,247,1.1,-999.0,80,-99.99,,,0.00,Acu-Link.com,2013-08-30 15:02:00,
2013-08-30 11:17:00,81.3,73.4,29.77,SE,135,1.7,-999.0,77,-99.99,,,0.00,Acu-Link.com,2013-08-30 15:17:00,
2013-08-30 11:32:00,81.5,71.6,29.77,SSW,202,1.7,-999.0,72,-99.99,,,0.00,Acu-Link.com,2013-08-30 15:32:00,
2013-08-30 11:48:00,82.0,73.3,29.76,NW,315,1.1,-999.0,75,-99.99,,,0.00,Acu-Link.com,2013-08-30 15:48:00,
2013-08-30 12:03:00,82.9,72.1,29.77,WSW,247,2.7,-999.0,70,-99.99,,,0.00,Acu-Link.com,2013-08-30 16:03:00,
2013-08-30 12:18:00,83.8,73.8,29.76,NNE,22,0.0,-999.0,72,-99.99,,,0.00,Acu-Link.com,2013-08-30 16:18:00,
2013-08-30 12:34:00,82.0,71.6,29.76,SSW,202,1.1,-999.0,71,-99.99,,,0.00,Acu-Link.com,2013-08-30 16:34:00,
2013-08-30 12:49:00,83.5,72.2,29.75,West,270,4.7,-999.0,69,-99.99,,,0.00,Acu-Link.com,2013-08-30 16:49:00,
2013-08-30 13:04:00,84.2,72.9,29.75,SE,135,2.2,-999.0,69,-99.99,,,0.00,Acu-Link.com,2013-08-30 17:04:00,
2013-08-30 13:19:00,83.3,72.0,29.75,West,270,3.7,-999.0,69,-99.99,,,0.00,Acu-Link.com,2013-08-30 17:19:00,
2013-08-30 13:35:00,84.4,72.2,29.75,West,270,4.2,-999.0,67,-99.99,,,0.00,Acu-Link.com,2013-08-30 17:35:00,
2013-08-30 13:50:00,85.8,72.2,29.75,SSW,202,1.7,-999.0,64,-99.99,,,0.00,Acu-Link.com,2013-08-30 17:50:00,
2013-08-30 14:05:00,85.3,70.8,29.75,WNW,292,4.2,-999.0,62,-99.99,,,0.00,Acu-Link.com,2013-08-30 18:05:00,
2013-08-30 14:21:00,86.9,72.3,29.74,West,270,5.3,-999.0,62,-99.99,,,0.00,Acu-Link.com,2013-08-30 18:21:00,
2013-08-30 14:36:00,87.8,71.1,29.74,SSW,202,1.7,-999.0,58,-99.99,,,0.00,Acu-Link.com,2013-08-30 18:36:00,
2013-08-30 14:51:00,87.1,70.5,29.74,West,270,0.0,-999.0,58,-99.99,,,0.00,Acu-Link.com,2013-08-30 18:51:00,
2013-08-30 15:06:00,86.0,71.0,29.72,West,270,5.3,-999.0,61,-99.99,,,0.00,Acu-Link.com,2013-08-30 19:06:00,
2013-08-30 15:22:00,88.5,73.3,29.72,West,270,6.3,-999.0,61,-99.99,,,0.00,Acu-Link.com,2013-08-30 19:22:00,
2013-08-30 15:37:00,86.9,71.8,29.71,West,270,1.7,-999.0,61,-99.99,,,0.00,Acu-Link.com,2013-08-30 19:37:00,
2013-08-30 15:52:00,86.9,70.8,29.71,North,0,1.7,-999.0,59,-99.99,,,0.00,Acu-Link.com,2013-08-30 19:52:00,
2013-08-30 16:07:00,87.3,70.2,29.70,WSW,247,2.2,-999.0,57,-99.99,,,0.00,Acu-Link.com,2013-08-30 20:07:00,
2013-08-30 16:23:00,86.9,71.3,29.70,WNW,292,2.7,-999.0,60,-99.99,,,0.00,Acu-Link.com,2013-08-30 20:23:00,
2013-08-30 16:38:00,89.4,70.5,29.69,WSW,247,2.7,-999.0,54,-99.99,,,0.00,Acu-Link.com,2013-08-30 20:38:00,
2013-08-30 16:53:00,88.7,69.9,29.69,SW,225,2.2,-999.0,54,-99.99,,,0.00,Acu-Link.com,2013-08-30 20:53:00,
2013-08-30 17:08:00,88.0,70.3,29.69,SSW,202,2.7,-999.0,56,-99.99,,,0.00,Acu-Link.com,2013-08-30 21:08:00,
2013-08-30 17:24:00,87.8,69.6,29.68,West,270,4.2,-999.0,55,-99.99,,,0.00,Acu-Link.com,2013-08-30 21:24:00,
2013-08-30 17:39:00,89.8,69.8,29.68,WSW,247,3.7,-999.0,52,-99.99,,,0.00,Acu-Link.com,2013-08-30 21:39:00,
2013-08-30 17:54:00,91.0,70.9,29.68,West,270,3.7,-999.0,52,-99.99,,,0.00,Acu-Link.com,2013-08-30 21:54:00,
2013-08-30 18:09:00,91.0,70.3,29.67,West,270,3.7,-999.0,51,-99.99,,,0.00,Acu-Link.com,2013-08-30 22:09:00,
2013-08-30 18:25:00,90.5,68.7,29.68,West,270,2.7,-999.0,49,-99.99,,,0.00,Acu-Link.com,2013-08-30 22:25:00,
2013-08-30 18:40:00,88.0,69.8,29.67,WSW,247,3.2,-999.0,55,-99.99,,,0.00,Acu-Link.com,2013-08-30 22:40:00,
2013-08-30 18:55:00,89.2,70.3,29.67,WSW,247,3.7,-999.0,54,-99.99,,,0.00,Acu-Link.com,2013-08-30 22:55:00,
2013-08-30 19:10:00,87.8,70.1,29.66,WSW,247,0.0,-999.0,56,-99.99,,,0.00,Acu-Link.com,2013-08-30 23:10:00,
2013-08-30 19:26:00,86.5,69.9,29.66,WSW,247,0.0,-999.0,58,-99.99,,,0.00,Acu-Link.com,2013-08-30 23:26:00,
2013-08-30 19:41:00,85.3,70.3,29.65,South,180,0.0,-999.0,61,-99.99,,,0.00,Acu-Link.com,2013-08-30 23:41:00,
2013-08-30 19:56:00,84.2,70.2,29.66,SSW,202,0.0,-999.0,63,-99.99,,,0.00,Acu-Link.com,2013-08-30 23:56:00,
2013-08-30 20:12:00,82.8,69.8,29.66,SSW,202,0.0,-999.0,65,-99.99,,,0.00,Acu-Link.com,2013-08-31 00:12:00,
2013-08-30 20:27:00,81.5,69.9,29.66,West,270,0.0,-999.0,68,-99.99,,,0.00,Acu-Link.com,2013-08-31 00:27:00,
2013-08-30 20:42:00,80.8,70.1,29.66,SSW,202,0.0,-999.0,70,-99.99,,,0.00,Acu-Link.com,2013-08-31 00:42:00,
2013-08-30 20:58:00,80.1,70.2,29.67,SE,135,0.0,-999.0,72,-99.99,,,0.00,Acu-Link.com,2013-08-31 00:58:00,
2013-08-30 21:13:00,79.3,69.9,29.67,ESE,112,0.0,-999.0,73,-99.99,,,0.00,Acu-Link.com,2013-08-31 01:13:00,
2013-08-30 21:28:00,78.4,70.2,29.67,ESE,112,0.0,-999.0,76,-99.99,,,0.00,Acu-Link.com,2013-08-31 01:28:00,
2013-08-30 21:43:00,77.5,70.1,29.67,ESE,112,0.0,-999.0,78,-99.99,,,0.00,Acu-Link.com,2013-08-31 01:43:00,
2013-08-30 21:59:00,77.2,70.2,29.68,ESE,112,0.0,-999.0,79,-99.99,,,0.00,Acu-Link.com,2013-08-31 01:59:00,
2013-08-30 22:14:00,76.6,70.0,29.68,ESE,112,0.0,-999.0,80,-99.99,,,0.00,Acu-Link.com,2013-08-31 02:14:00,
2013-08-30 22:29:00,76.3,70.0,29.67,ESE,112,0.0,-999.0,81,-99.99,,,0.00,Acu-Link.com,2013-08-31 02:29:00,
2013-08-30 22:45:00,76.3,70.4,29.68,SE,135,0.0,-999.0,82,-99.99,,,0.00,Acu-Link.com,2013-08-31 02:45:00,
2013-08-30 23:00:00,76.1,70.5,29.67,SE,135,0.0,-999.0,83,-99.99,,,0.00,Acu-Link.com,2013-08-31 03:00:00,
2013-08-30 23:15:00,75.6,70.1,29.66,SE,135,0.0,-999.0,83,-99.99,,,0.00,Acu-Link.com,2013-08-31 03:15:00,
2013-08-30 23:31:00,75.2,70.4,29.66,SSW,202,0.0,-999.0,85,-99.99,,,0.00,Acu-Link.com,2013-08-31 03:31:00,
2013-08-30 23:46:00,76.1,70.5,29.66,SSW,202,0.0,-999.0,83,-99.99,,,0.00,Acu-Link.com,2013-08-31 03:46:00,